Regional Weather Roundup
Issued by NWS

Home | Current Version | Previous Version | Graphics & Text | Print | Product List | Glossary On
Versions: 1 2 3 4 5 6 7 8 9 10 11 12 13 14 15 16 17 18 19 20 21 22 23 24 25 26 27 28 29 30 31 32 33 34 35 36 37 38 39 40 41 42 43 44 45 46 47 48 49 50
000
ASUS43 KOAX 241002
RWRNE

WEATHER ROUNDUP FOR NEBRASKA
NATIONAL WEATHER SERVICE OMAHA NE
500 AM CDT FRI OCT 24 2014

NOTES: SATELLITE DATA IS BEING USED TO AUGMENT CLOUD COVER ABOVE
       12000 FEET.
       "FAIR" INDICATES FEW OR NO CLOUDS BELOW 12,000 FEET WITH NO
       SIGNIFICANT WEATHER AND/OR OBSTRUCTIONS TO VISIBILITY.

  * THESE STATIONS DO NOT REPORT WEATHER SUCH AS RAIN...SNOW OR FOG.

NEZ001>004-019>022-054>056-241100-
NEBRASKA PANHANDLE

CITY           SKY/WX    TMP DP  RH WIND       PRES   REMARKS
SCOTTSBLUFF    CLOUDY    48  37  65 NW6       30.01S
ALLIANCE       CLOUDY    40  32  73 W9        29.98F WCI  34
CHADRON        CLOUDY    40  34  79 CALM      29.94S
KIMBALL        CLOUDY    51  35  55 W10       30.06S
SIDNEY         MOCLDY    46  34  62 W9        30.04F
$$

NEZ057>060-069>072-079>082-241100-
SOUTHWEST NEBRASKA

CITY           SKY/WX    TMP DP  RH WIND       PRES   REMARKS
NORTH PLATTE   PTCLDY    40  39  97 NW5       29.98F
IMPERIAL       PTCLDY    47  38  71 W9        30.01F
LEXINGTON      CLEAR     54  52  94 W3        29.97F
MCCOOK         CLEAR     51  49  92 W3        30.00F
OGALLALA       MOCLDY    41  37  83 CALM      30.00S
$$

NEZ005>010-023>029-035>040-094-241100-
NORTH CENTRAL NEBRASKA

CITY           SKY/WX    TMP DP  RH WIND       PRES   REMARKS
VALENTINE      CLOUDY    44  37  76 W5        29.92F
AINSWORTH      MOCLDY    46  38  71 CALM      29.91F
BROKEN BOW     PTCLDY    56  49  77 W7        29.94F
O`NEILL        MOCLDY    52  50  95 SW7       29.89F
ORD            MOCLDY    48  47  96 CALM      29.92S FOG
THEDFORD       MOCLDY    49  38  66 W6        29.95F
$$

NEZ041-046>049-061>064-073>077-083>087-241100-
SOUTH CENTRAL NEBRASKA

CITY           SKY/WX    TMP DP  RH WIND       PRES   REMARKS
GRAND ISLAND   MOCLDY    58  54  86 SW12      29.95F
AURORA         MOCLDY    56  56 100 SW9       29.96S FOG
HASTINGS       MOCLDY    56  53  90 SW7       29.97S FOG
HEBRON         MOCLDY    58  55  91 SW3       30.00R FOG
HOLDREGE       MOCLDY    55  53  92 SW9       29.98S FOG
KEARNEY *      MOCLDY    52  50  93 S7        29.97F
YORK           MOCLDY    57  55  94 SW9       29.96F FOG
$$

NEZ011>018-030>034-042>045-241100-
NORTHEAST NEBRASKA

CITY           SKY/WX    TMP DP  RH WIND       PRES   REMARKS
NORFOLK        MOCLDY    57  54  89 SW8       29.90F
ALBION         MOCLDY    55  52  89 S3        29.92S
BLAIR          PTCLDY    57  55  91 S9        29.95F
COLUMBUS *     CLOUDY    57  52  82 SW6       29.94F
FREMONT        MOCLDY    60  56  89 S7        29.94F
TEKAMAH        PTCLDY    57  54  89 S9        29.93F
WAYNE          MOCLDY    57  55  92 SW12      29.89F
$$

NEZ050>053-065>068-078-088>093-241100-
SOUTHEAST NEBRASKA

CITY           SKY/WX    TMP DP  RH WIND       PRES   REMARKS
LINCOLN        MOCLDY    61  58  90 S12       29.97F
OMAHA EPPLEY   MOCLDY    56  54  93 S9        29.97S
BEATRICE       MOCLDY    58  57  97 S8        29.99F FOG
FALLS CITY     CLOUDY    59  58  96 S9        30.01S FOG
NEBRASKA CITY  PTCLDY    56  56 100 S8        30.00R FOG
PLATTSMOUTH    MOCLDY    56  54  94 S6        29.98S FOG
$$

NEZ044-045-051>053-067-241100-
OMAHA AREA

CITY           SKY/WX    TMP DP  RH WIND       PRES   REMARKS
OMAHA EPPLEY   MOCLDY    56  54  93 S9        29.97S
BLAIR          PTCLDY    57  55  91 S9        29.95F
FREMONT        MOCLDY    60  56  89 S7        29.94F
OFFUTT AFB     MOCLDY    53  53 100 E6        29.97F
PLATTSMOUTH    MOCLDY    56  54  94 S6        29.98S FOG
WAHOO          FAIR      56  54  91 S6        29.95S
$$



USA.gov is the U.S. government's official web portal to all federal, state and local government web resources and services.